When you browse on this site, cookies collect data to enhance your experience and personalize the content and advertising you see.
Visit our Privacy Policy to learn more. By continuing to use the site, you agree to this use of cookies and data.
  • In Sweden
  • List of Countries
  • For 7 days
  • Water Temperature
  • Satellite Maps
  • Weather Map
  • Weather Widgets
  • user-avatar
    Login

    Hourly Weather Kociszew

    Today, 20 February, Wednesday

    Time Temperature Precipitation Wind Pressure Humidity
    00:00 +3°C° 0 mm 5 mps 743 mmHg 89%
    01:00 +2°C° 0 mm 5 mps 744 mmHg 89%
    02:00 +2°C° 0 mm 5 mps 744 mmHg 90%
    03:00 +2°C° 0 mm 5 mps 744 mmHg 90%
    04:00 +1°C° 0 mm 5 mps 744 mmHg 91%
    05:00 +1°C° 0 mm 5 mps 744 mmHg 90%
    06:00 +1°C° 0 mm 6 mps 745 mmHg 90%
    07:00 +1°C° 0 mm 6 mps 745 mmHg 89%
    08:00 +2°C° 0.1 mm 6 mps 745 mmHg 87%
    09:00 +2°C° 0.1 mm 6 mps 746 mmHg 85%
    10:00 +2°C° 0.1 mm 6 mps 746 mmHg 82%
    11:00 +2°C° 0.1 mm 6 mps 746 mmHg 80%
    12:00 +2°C° 0.1 mm 7 mps 746 mmHg 79%
    13:00 +3°C° 0.1 mm 7 mps 747 mmHg 77%
    14:00 +3°C° 0.1 mm 7 mps 747 mmHg 76%
    15:00 +3°C° 0.1 mm 6 mps 747 mmHg 75%
    16:00 +3°C° 0.1 mm 6 mps 747 mmHg 75%
    17:00 +3°C° 0.1 mm 6 mps 747 mmHg 77%
    18:00 +3°C° 0.1 mm 5 mps 748 mmHg 79%
    19:00 +3°C° 0.1 mm 5 mps 748 mmHg 81%
    20:00 +3°C° 0 mm 4 mps 748 mmHg 82%
    21:00 +3°C° 0 mm 4 mps 749 mmHg 84%
    22:00 +3°C° 0 mm 3 mps 749 mmHg 85%
    23:00 +3°C° 0 mm 3 mps 749 mmHg 87%

    Tomorrow, 21 February, Thursday

    Time Temperature Precipitation Wind Pressure Humidity
    00:00 +3°C° 0 mm 3 mps 749 mmHg 88%
    01:00 +3°C° 0 mm 3 mps 749 mmHg 89%
    02:00 +3°C° 0 mm 3 mps 749 mmHg 90%
    03:00 +3°C° 0 mm 3 mps 749 mmHg 90%
    04:00 +3°C° 0 mm 3 mps 749 mmHg 91%
    05:00 +3°C° 0 mm 4 mps 749 mmHg 91%
    06:00 +3°C° 0 mm 4 mps 749 mmHg 90%
    07:00 +3°C° 0 mm 4 mps 749 mmHg 90%
    08:00 +2°C° 0.1 mm 5 mps 749 mmHg 86%
    09:00 +2°C° 0.1 mm 5 mps 748 mmHg 83%
    10:00 +3°C° 0.1 mm 6 mps 748 mmHg 80%
    11:00 +3°C° 0.7 mm 6 mps 748 mmHg 81%
    12:00 +3°C° 0.7 mm 7 mps 748 mmHg 82%
    13:00 +3°C° 0.7 mm 7 mps 747 mmHg 84%
    14:00 +3°C° 0.6 mm 7 mps 747 mmHg 85%
    15:00 +3°C° 0.6 mm 7 mps 747 mmHg 85%
    16:00 +3°C° 0.6 mm 6 mps 746 mmHg 86%
    17:00 +3°C° 0.4 mm 7 mps 746 mmHg 87%
    18:00 +4°C° 0.4 mm 7 mps 746 mmHg 88%
    19:00 +4°C° 0.4 mm 7 mps 746 mmHg 89%
    20:00 +4°C° 0.8 mm 7 mps 746 mmHg 90%
    21:00 +4°C° 0.8 mm 7 mps 746 mmHg 91%
    22:00 +4°C° 0.8 mm 7 mps 746 mmHg 92%
    23:00 +4°C° 0.2 mm 7 mps 746 mmHg 92%

    Day after tomorrow, 22 February, Friday

    Time Temperature Precipitation Wind Pressure Humidity
    00:00 +4°C° 0.2 mm 7 mps 746 mmHg 92%
    01:00 +4°C° 0.2 mm 7 mps 746 mmHg 92%
    02:00 +4°C° 0.9 mm 7 mps 747 mmHg 91%
    03:00 +4°C° 0.9 mm 7 mps 747 mmHg 90%
    04:00 +3°C° 0.9 mm 7 mps 747 mmHg 90%
    05:00 +2°C° 0.2 mm 7 mps 749 mmHg 86%
    06:00 -1°C° 0.2 mm 7 mps 750 mmHg 83%
    07:00 -3°C° 0.2 mm 7 mps 751 mmHg 79%
    08:00 -3°C° 0 mm 7 mps 752 mmHg 72%
    09:00 -3°C° 0 mm 6 mps 753 mmHg 65%
    10:00 -3°C° 0 mm 6 mps 755 mmHg 57%
    11:00 -3°C° 0 mm 6 mps 755 mmHg 56%
    12:00 -2°C° 0 mm 6 mps 756 mmHg 54%
    13:00 -1°C° 0 mm 5 mps 757 mmHg 53%
    14:00 -2°C° 0 mm 5 mps 757 mmHg 51%
    15:00 -2°C° 0 mm 5 mps 758 mmHg 50%
    16:00 -2°C° 0 mm 5 mps 758 mmHg 49%
    17:00 -4°C° 0 mm 5 mps 759 mmHg 51%
    18:00 -5°C° 0 mm 5 mps 759 mmHg 53%
    19:00 -5°C° 0 mm 5 mps 760 mmHg 55%
    20:00 -6°C° 0 mm 5 mps 761 mmHg 53%
    21:00 -5°C° 0 mm 4 mps 761 mmHg 50%
    22:00 -5°C° 0 mm 4 mps 762 mmHg 48%
    23:00 -5°C° 0 mm 4 mps 762 mmHg 46%

    23 February, Saturday

    Time Temperature Precipitation Wind Pressure Humidity
    00:00 -5°C° 0 mm 3 mps 762 mmHg 44%
    01:00 -5°C° 0 mm 3 mps 763 mmHg 42%
    02:00 -4°C° 0 mm 2 mps 763 mmHg 42%
    03:00 -4°C° 0 mm 2 mps 763 mmHg 41%
    04:00 -4°C° 0 mm 2 mps 763 mmHg 41%
    05:00 -4°C° 0 mm 2 mps 763 mmHg 41%
    06:00 -3°C° 0 mm 1 mps 763 mmHg 41%
    07:00 -3°C° 0 mm 1 mps 763 mmHg 41%
    08:00 -2°C° 0 mm 1 mps 763 mmHg 37%
    09:00 -1°C° 0 mm 1 mps 763 mmHg 34%
    10:00 0°C° 0 mm 1 mps 763 mmHg 31%
    11:00 0°C° 0 mm 1 mps 763 mmHg 29%
    12:00 +1°C° 0 mm 1 mps 763 mmHg 27%
    13:00 +2°C° 0 mm 1 mps 763 mmHg 26%
    14:00 +2°C° 0 mm 1 mps 762 mmHg 28%
    15:00 +2°C° 0 mm 1 mps 762 mmHg 30%
    16:00 +2°C° 0 mm 1 mps 762 mmHg 32%
    17:00 +1°C° 0 mm 1 mps 762 mmHg 35%
    18:00 0°C° 0 mm 1 mps 762 mmHg 37%
    19:00 0°C° 0 mm 1 mps 761 mmHg 39%
    20:00 0°C° 0 mm 1 mps 761 mmHg 40%
    21:00 -3°C° 0 mm 2 mps 761 mmHg 40%
    22:00 -3°C° 0 mm 2 mps 761 mmHg 40%
    23:00 -3°C° 0 mm 2 mps 761 mmHg 41%

    24 February, Sunday

    Time Temperature Precipitation Wind Pressure Humidity
    00:00 -2°C° 0 mm 2 mps 761 mmHg 41%
    01:00 -2°C° 0 mm 2 mps 760 mmHg 42%
    02:00 -2°C° 0 mm 2 mps 760 mmHg 41%
    03:00 -2°C° 0 mm 2 mps 760 mmHg 41%
    04:00 -2°C° 0 mm 2 mps 759 mmHg 40%
    05:00 -2°C° 0 mm 2 mps 759 mmHg 41%
    06:00 -2°C° 0 mm 2 mps 759 mmHg 42%
    07:00 -2°C° 0 mm 2 mps 759 mmHg 43%
    08:00 -1°C° 0 mm 3 mps 759 mmHg 41%
    09:00 0°C° 0 mm 3 mps 758 mmHg 38%
    10:00 +1°C° 0 mm 3 mps 758 mmHg 36%
    11:00 +2°C° 0 mm 3 mps 758 mmHg 36%
    12:00 +3°C° 0 mm 3 mps 758 mmHg 37%
    13:00 +4°C° 0 mm 3 mps 757 mmHg 38%
    14:00 +4°C° 0 mm 3 mps 757 mmHg 42%
    15:00 +4°C° 0 mm 2 mps 757 mmHg 47%
    16:00 +4°C° 0 mm 2 mps 757 mmHg 51%
    17:00 +3°C° 0 mm 2 mps 757 mmHg 54%
    18:00 +2°C° 0 mm 2 mps 757 mmHg 57%
    19:00 +2°C° 0 mm 1 mps 757 mmHg 60%
    20:00 +2°C° 0 mm 1 mps 757 mmHg 61%
    21:00 +2°C° 0 mm 1 mps 757 mmHg 61%
    22:00 +2°C° 0 mm 1 mps 757 mmHg 62%
    23:00 +2°C° 0 mm 1 mps 757 mmHg 63%

    25 February, Monday

    Time Temperature Precipitation Wind Pressure Humidity
    00:00 +2°C° 0 mm 1 mps 757 mmHg 63%
    01:00 +2°C° 0 mm 1 mps 756 mmHg 63%
    02:00 +1°C° 0 mm 2 mps 756 mmHg 64%
    03:00 +1°C° 0 mm 2 mps 756 mmHg 65%
    04:00 +1°C° 0 mm 2 mps 756 mmHg 66%
    05:00 +1°C° 0 mm 2 mps 756 mmHg 68%
    06:00 +1°C° 0 mm 2 mps 756 mmHg 71%
    07:00 +1°C° 0 mm 2 mps 756 mmHg 73%
    08:00 +1°C° 0 mm 3 mps 756 mmHg 70%
    09:00 +2°C° 0 mm 3 mps 756 mmHg 67%
    10:00 +3°C° 0 mm 3 mps 756 mmHg 64%
    11:00 +4°C° 0 mm 3 mps 756 mmHg 64%
    12:00 +5°C° 0 mm 3 mps 756 mmHg 64%
    13:00 +6°C° 0 mm 4 mps 756 mmHg 64%
    14:00 +7°C° 0 mm 3 mps 756 mmHg 68%
    15:00 +7°C° 0 mm 3 mps 756 mmHg 72%
    16:00 +7°C° 0 mm 3 mps 756 mmHg 76%
    17:00 +5°C° 0 mm 3 mps 756 mmHg 81%
    18:00 +4°C° 0 mm 3 mps 756 mmHg 87%
    19:00 +3°C° 0 mm 3 mps 756 mmHg 92%
    20:00 +2°C° 0 mm 3 mps 756 mmHg 92%
    21:00 +3°C° 0 mm 2 mps 756 mmHg 92%
    22:00 +2°C° 0 mm 2 mps 756 mmHg 92%
    23:00 +2°C° 0 mm 2 mps 756 mmHg 92%
    Show more